Погода в Нялиной

Россия / Ханты-Мансийский автономный округ - Югра     61°18′17″N   69°34′43″E
темп.,
°C
ветер,
м/с
пор.,
м/с
влажн.,
%
обл.,
%
осадки,
мм/ч
давл.,
гПа
погр.,
м
3 марта, ср
ср323:00−13ю71391100 0.1 1002512
02:00−14ю61292100 0.1 1000449
05:00−15ю61294100 0.1 999430
08:00−14ю61195100 0.9 997443
11:00−13ю71193100 1.6 997525
14:00−11ю71192100 0.3 996601
17:00−11ю61193100 0.6 996533
20:00−11ю61194100 0.4 995391
4 марта, чт
чт423:00−10ююз6129499 1.0 996307
02:00−9юз5995100 0.2 995190
05:00−10ююз579699 0.3 996100
08:00−9ю5109597 0.3 995243
11:00−6ю6109497 0.6 994510
14:00−4ююз5893100 0.5 994515
17:00−5ююз359599 0.6 994130
20:00−6ююз2397100 0.3 99323
5 марта, пт
пт523:00−8юз1198100 0.6 99221
02:00−8с1196100 0.1 99221
05:00−7зсз2296100 0.9 99249
08:00−8з3596100 0.5 993109
11:00−7зюз469399 0.8 994301
14:00−7юз579290 0.0 996349
17:00−9юз469494 0.0 998130
20:00−10ююз469596 0.0 99982
6 марта, сб
сб623:00−11ююз349693 0.1 100037
02:00−12ю239791 0.1 100023
05:00−12ю239694 0.3 100025
08:00−13ю229686 0.1 99921
11:00−10в119287 0.1 998122
14:00−9св019098 0.0 998183
17:00−10з119597 0.1 99921
20:00−10з339698 0.2 100027
7 марта, вс
вс723:00−13зсз469499 0.3 100193
02:00−17з459693 0.0 100249
05:00−19з449787 0.0 100442
08:00−21з349819 0.0 100429
11:00−17зюз349313 0.0 1005170
14:00−14юз349355 0.0 1005236
17:00−16юз339561 0.0 100523
20:00−18юз2210060 0.0 100620